WE3WEE Weather Reports


time (UTC)temp
C
wind
direction
speed
KPH
gust
KPH
rain 1hr
cm
rain 24hr
cm
rain mn
cm
humidity
%
barometer
mb
20260509212607 12 236 4.8 8.0 0.00 1.19 1.19 96 1009.6
20260509212104 12 186 3.2 3.2 0.00 1.19 1.19 96 1009.6
20260509211600 12 220 3.2 3.2 0.00 1.19 1.19 96 1009.6
20260509211057 12 218 3.2 3.2 0.00 1.19 1.19 97 1009.6
20260509210553 12 239 4.8 4.8 0.03 1.19 1.19 98 1009.6
20260509210050 11 237 3.2 3.2 0.03 1.19 1.19 98 1009.6
20260509205544 11 227 8.0 8.0 0.03 1.19 1.19 98 1009.6
20260509205040 11 218 3.2 3.2 0.03 1.19 1.19 98 1009.6
20260509204536 11 217 3.2 3.2 0.03 1.19 1.19 98 1009.6
20260509204032 11 195 3.2 3.2 0.03 1.19 1.19 98 1009.6
20260509203528 11 225 6.4 8.0 0.03 1.19 1.19 98 1009.6
20260509203027 11 241 3.2 3.2 0.03 1.19 1.19 99 1009.6
20260509202521 11 244 0.0 0.0 0.03 1.19 1.19 98 1009.6
20260509202017 11 235 3.2 6.4 0.03 1.19 1.19 98 1009.6
20260509201512 11 248 8.0 8.0 0.03 1.19 1.19 98 1010.6
20260509201010 11 241 3.2 4.8 0.03 1.19 1.19 97 1010.6
20260509200510 11 224 9.7 12.9 0.00 1.17 1.17 97 1010.6
20260509200006 12 237 4.8 4.8 0.08 1.17 1.17 97 1009.6
20260509195501 12 238 3.2 3.2 0.08 1.17 1.17 97 1009.6
20260509194955 12 236 8.0 8.0 0.08 1.17 1.17 97 1009.6
20260509194451 12 241 0.0 0.0 0.08 1.17 1.17 98 1009.6
20260509193948 12 240 0.0 0.0 0.08 1.17 1.17 98 1009.6
20260509193443 11 240 0.0 0.0 0.08 1.17 1.17 97 1009.6
20260509192939 11 225 0.0 0.0 0.05 1.14 1.14 97 1009.6
20260509192436 11 240 0.0 0.0 0.05 1.14 1.14 97 1009.6
20260509191931 11 225 4.8 4.8 0.05 1.14 1.14 97 1009.6
20260509191426 11 234 3.2 6.4 0.05 1.14 1.14 97 1010.6
20260509190923 11 291 3.2 3.2 0.03 1.12 1.12 96 1010.6
20260509190420 11 202 12.9 16.1 0.00 1.09 1.09 95 1010.6
20260509185918 11 223 4.8 8.0 0.28 1.07 1.07 95 1010.6
20260509185415 11 214 8.0 8.0 0.28 1.07 1.07 97 1010.6
20260509184911 11 234 20.9 22.5 0.25 1.04 1.04 96 1010.6
20260509184409 11 240 11.3 12.9 0.20 0.99 0.99 97 1010.6
20260509183905 11 225 6.4 9.7 0.18 0.97 0.97 98 1010.6
20260509183354 11 214 6.4 8.0 0.15 0.94 0.94 97 1010.6
20260509182850 11 214 12.9 12.9 0.13 0.91 0.91 97 1010.6
20260509182347 11 201 9.7 9.7 0.10 0.89 0.89 97 1010.6
20260509181845 11 224 12.9 16.1 0.08 0.86 0.86 98 1010.6
20260509181342 11 212 6.4 6.4 0.05 0.84 0.84 98 1010.6
20260509180839 11 217 11.3 12.9 0.05 0.84 0.84 97 1010.6
20260509180335 11 201 3.2 3.2 0.03 0.81 0.81 98 1010.6
20260509175832 11 278 4.8 4.8 0.20 0.79 0.79 97 1010.6
20260509175328 11 174 4.8 4.8 0.18 0.76 0.76 98 1010.6
20260509174824 11 222 8.0 8.0 0.15 0.74 0.74 98 1010.6
20260509174320 11 210 8.0 9.7 0.15 0.74 0.74 98 1010.6
20260509173816 11 227 1.6 1.6 0.13 0.71 0.71 98 1010.6
20260509173312 11 217 9.7 9.7 0.13 0.71 0.71 98 1010.6
20260509172808 11 221 8.0 8.0 0.10 0.69 0.69 98 1010.6
20260509172306 11 250 4.8 8.0 0.08 0.66 0.66 98 1010.6
20260509171800 11 223 0.0 0.0 0.05 0.64 0.64 98 1010.6
20260509171251 11 195 9.7 11.3 0.05 0.64 0.64 97 1010.6
20260509170747 11 238 9.7 12.9 0.03 0.61 0.61 97 1010.6
20260509170243 11 202 9.7 11.3 0.00 0.58 0.58 98 1010.6
20260509165742 11 212 4.8 4.8 0.13 0.58 0.58 97 1010.6
20260509165238 11 201 6.4 8.0 0.10 0.56 0.56 97 1010.6
20260509164734 11 210 9.7 11.3 0.10 0.56 0.56 97 1010.6
20260509164230 11 239 11.3 17.7 0.08 0.53 0.53 97 1010.6
20260509163727 11 186 8.0 9.7 0.08 0.53 0.53 98 1010.6
20260509163223 11 219 4.8 4.8 0.05 0.51 0.51 98 1010.6
20260509162721 11 224 1.6 8.0 0.05 0.51 0.51 98 1010.6
20260509162216 11 208 0.0 0.0 0.03 0.48 0.48 98 1010.6
20260509161712 11 224 0.0 0.0 0.00 0.46 0.46 97 1010.6
20260509161209 11 248 0.0 0.0 0.18 0.43 0.43 97 1011.7
20260509160704 11 227 0.0 0.0 0.18 0.43 0.43 98 1011.7
20260509160200 11 234 0.0 0.0 0.15 0.41 0.41 98 1011.7
20260509155656 11 246 0.0 0.0 0.13 0.38 0.38 97 1010.6
20260509155152 11 221 0.0 0.0 0.13 0.38 0.38 97 1010.6
20260509154648 11 222 0.0 0.0 0.10 0.36 0.36 97 1010.6
20260509154146 11 242 0.0 0.0 0.08 0.33 0.33 97 1010.6
20260509153642 11 224 0.0 0.0 0.05 0.30 0.30 96 1010.6
20260509153139 11 202 0.0 0.0 0.05 0.30 0.30 96 1010.6
20260509152634 11 202 0.0 0.0 0.03 0.28 0.28 96 1010.6
20260509152132 11 226 0.0 0.0 0.03 0.28 0.28 97 1010.6
20260509151628 11 226 0.0 0.0 0.03 0.28 0.28 97 1010.6
20260509151126 11 202 0.0 0.0 0.05 0.25 0.25 96 1010.6
20260509150624 11 225 0.0 0.0 0.05 0.25 0.25 96 1010.6
20260509150122 11 217 0.0 0.0 0.03 0.23 0.23 96 1010.6
20260509145618 11 246 0.0 0.0 0.03 0.23 0.23 96 1011.7
20260509145113 11 290 0.0 0.0 0.03 0.23 0.23 97 1011.7
20260509144610 11 290 0.0 0.0 0.03 0.23 0.23 97 1011.7
20260509144107 10 290 0.0 0.0 0.03 0.23 0.23 97 1010.6
20260509143604 10 291 0.0 0.0 0.00 0.20 0.20 98 1010.6
20260509143102 10 291 0.0 0.0 0.00 0.20 0.20 98 1010.6
20260509142556 10 290 0.0 0.0 0.00 0.20 0.20 98 1011.7
20260509142053 10 290 0.0 0.0 0.00 0.20 0.20 98 1011.7
20260509141549 10 212 0.0 0.0 0.00 0.20 0.20 99 1011.7
20260509141046 10 212 0.0 0.0 0.08 0.20 0.20 98 1011.7
20260509140543 10 210 0.0 0.0 0.08 0.20 0.20 98 1011.7
20260509140041 10 210 0.0 0.0 0.08 0.20 0.20 98 1011.7
20260509135538 10 212 0.0 0.0 0.05 0.18 0.18 98 1011.7
20260509135036 10 213 0.0 0.0 0.05 0.18 0.18 98 1011.7
20260509134532 10 212 0.0 0.0 0.05 0.18 0.18 98 1011.7
20260509134030 10 212 0.0 0.0 0.03 0.15 0.15 98 1011.7
20260509133526 10 326 0.0 0.0 0.03 0.15 0.15 98 1011.7
20260509133024 10 326 0.0 0.0 0.03 0.15 0.15 99 1011.7
20260509132522 10 6 0.0 0.0 0.03 0.15 0.15 99 1011.7
20260509132021 10 6 0.0 0.0 0.00 0.13 0.13 99 1011.7
20260509131516 9 7 0.0 0.0 0.00 0.13 0.13 99 1011.7
20260509131013 9 7 0.0 0.0 0.08 0.13 0.13 99 1010.6
20260509130509 9 7 0.0 0.0 0.05 0.10 0.10 99 1010.6
20260509130006 9 347 0.0 0.0 0.05 0.10 0.10 99 1010.6
20260509125502 9 330 0.0 0.0 0.05 0.10 0.10 99 1010.6
20260509124958 9 330 0.0 0.0 0.05 0.10 0.10 99 1010.6
20260509124455 9 330 0.0 0.0 0.03 0.08 0.08 99 1010.6
20260509123953 9 330 0.0 0.0 0.03 0.08 0.08 99 1010.6
20260509123450 9 330 0.0 0.0 0.03 0.08 0.08 99 1010.6
20260509122946 9 330 0.0 0.0 0.03 0.08 0.08 99 1010.6
20260509122443 9 330 0.0 0.0 0.03 0.08 0.08 99 1010.6
20260509121940 9 347 0.0 0.0 0.03 0.08 0.08 99 1010.6
20260509121436 9 346 0.0 0.0 0.03 0.08 0.08 99 1010.6
20260509120935 9 2 0.0 0.0 0.00 0.05 0.05 99 1010.6
20260509120432 8 2 0.0 0.0 0.00 0.05 0.05 99 1010.6
20260509115930 8 3 0.0 0.0 0.00 0.05 0.05 99 1010.6
20260509115427 8 7 0.0 0.0 0.00 0.05 0.05 99 1010.6
20260509114924 8 344 0.0 0.0 0.00 0.05 0.05 99 1010.6
20260509114423 8 344 0.0 0.0 0.00 0.05 0.05 99 1010.6
20260509113922 8 344 0.0 0.0 0.00 0.05 0.05 99 1010.6
20260509113419 8 344 0.0 0.0 0.00 0.05 0.05 99 1010.6
20260509112915 8 344 0.0 0.0 0.00 0.05 0.05 99 1010.6
20260509112412 8 344 0.0 0.0 0.00 0.05 0.05 99 1010.6
20260509111904 8 344 0.0 0.0 0.00 0.05 0.05 99 1010.6
20260509111401 8 344 0.0 0.0 0.00 0.05 0.05 99 1010.6
20260509110859 8 344 0.0 0.0 0.00 0.05 0.05 99 1010.6
20260509110354 8 344 0.0 0.0 0.00 0.05 0.05 99 1011.7
20260509105853 8 344 0.0 0.0 0.00 0.05 0.05 99 1011.7
20260509105351 8 343 0.0 0.0 0.00 0.05 0.05 99 1011.7
20260509104847 8 343 0.0 0.0 0.00 0.05 0.05 99 1010.6
20260509104343 8 345 0.0 0.0 0.00 0.05 0.05 99 1010.6
20260509103842 8 291 0.0 0.0 0.00 0.05 0.05 99 1010.6
20260509103339 8 25 0.0 0.0 0.00 0.05 0.05 99 1010.6
20260509102838 8 24 0.0 0.0 0.00 0.05 0.05 99 1010.6
20260509102334 8 24 0.0 0.0 0.00 0.05 0.05 99 1010.6
20260509101830 8 24 0.0 0.0 0.00 0.05 0.05 99 1011.7
20260509101326 8 24 0.0 0.0 0.00 0.05 0.05 99 1011.7
20260509100825 8 24 0.0 0.0 0.00 0.05 0.05 99 1011.7
20260509100321 8 24 0.0 0.0 0.00 0.05 0.05 99 1010.6
20260509095818 8 24 0.0 0.0 0.00 0.05 0.05 99 1010.6
20260509095315 8 24 0.0 0.0 0.00 0.05 0.05 99 1010.6
20260509094812 8 24 0.0 0.0 0.00 0.05 0.05 99 1011.7
20260509094309 8 24 0.0 0.0 0.00 0.05 0.05 99 1011.7
20260509093807 8 24 0.0 0.0 0.00 0.05 0.05 99 1011.7
20260509093304 8 70 0.0 0.0 0.00 0.05 0.05 99 1010.6
20260509092802 8 70 0.0 0.0 0.00 0.05 0.05 99 1010.6
20260509092300 8 70 0.0 0.0 0.00 0.05 0.05 99 1010.6
20260509091757 8 70 0.0 0.0 0.00 0.05 0.05 99 1011.7
20260509091254 8 70 0.0 0.0 0.00 0.05 0.05 99 1011.7
20260509090751 8 70 0.0 0.0 0.00 0.05 0.05 99 1011.7
20260509090248 8 70 0.0 0.0 0.00 0.05 0.05 99 1011.7
20260509085746 8 70 0.0 0.0 0.00 0.05 0.05 99 1011.7
20260509085243 8 70 0.0 0.0 0.00 0.05 0.05 99 1011.7
20260509084739 8 70 0.0 0.0 0.00 0.05 0.05 99 1011.7
20260509084236 8 70 0.0 0.0 0.00 0.05 0.05 99 1011.7
20260509083734 8 70 0.0 0.0 0.00 0.05 0.05 99 1011.7
20260509083231 8 197 0.0 0.0 0.00 0.05 0.05 99 1011.7
20260509082727 8 263 0.0 0.0 0.00 0.05 0.05 99 1011.7
20260509082224 8 263 0.0 0.0 0.00 0.05 0.05 99 1011.7
20260509081721 8 263 0.0 0.0 0.00 0.05 0.05 99 1011.7
20260509081218 8 263 0.0 0.0 0.00 0.05 0.05 99 1011.7
20260509080716 8 0 0.0 0.0 0.00 0.05 0.05 99 1011.7
20260509080214 8 263 0.0 0.0 0.03 0.05 0.05 99 1011.7
20260509075712 8 263 0.0 0.0 0.03 0.05 0.05 99 1011.7
20260509075209 8 263 0.0 0.0 0.03 0.05 0.05 99 1011.7
20260509074706 8 263 0.0 0.0 0.03 0.05 0.05 99 1011.7
20260509074203 8 263 0.0 0.0 0.03 0.05 0.05 99 1011.7
20260509073659 8 263 0.0 0.0 0.03 0.05 0.05 99 1011.7
20260509073156 8 263 0.0 0.0 0.03 0.05 0.05 99 1011.7
20260509072653 8 263 0.0 0.0 0.03 0.05 0.05 99 1011.7
20260509072149 8 263 0.0 0.0 0.03 0.05 0.05 99 1011.7
20260509071646 8 263 0.0 0.0 0.03 0.05 0.05 99 1011.7
20260509071143 8 263 0.0 0.0 0.03 0.05 0.05 99 1011.7
20260509070640 8 263 0.0 0.0 0.00 0.03 0.03 99 1011.7
20260509070136 8 263 0.0 0.0 0.00 0.03 0.03 99 1011.7
20260509065632 8 248 0.0 0.0 0.00 0.03 0.03 99 1011.7
20260509065128 8 248 0.0 0.0 0.00 0.03 0.03 99 1011.7
20260509064625 8 248 0.0 0.0 0.00 0.03 0.03 99 1012.8
20260509064118 8 248 0.0 0.0 0.00 0.03 0.03 99 1012.8
20260509063615 8 248 0.0 0.0 0.00 0.03 0.03 99 1012.8
20260509063111 8 248 0.0 0.0 0.00 0.03 0.03 99 1012.8
20260509062608 8 248 0.0 0.0 0.00 0.03 0.03 99 1012.8
20260509062105 8 248 0.0 0.0 0.00 0.03 0.03 99 1012.8
20260509061602 8 248 0.0 0.0 0.00 0.03 0.03 99 1012.8
20260509061059 8 248 0.0 0.0 0.00 0.03 0.03 99 1012.8
20260509060557 8 248 0.0 0.0 0.00 0.03 0.03 99 1012.8
20260509060052 8 248 0.0 0.0 0.00 0.03 0.03 99 1012.8
20260509055548 8 227 0.0 0.0 0.00 0.03 0.03 99 1012.8
20260509055044 8 227 0.0 0.0 0.00 0.03 0.03 99 1012.8
20260509054541 8 227 0.0 0.0 0.00 0.03 0.03 99 1012.8
20260509054039 8 227 0.0 0.0 0.00 0.03 0.03 99 1012.8
20260509053538 8 227 0.0 0.0 0.00 0.03 0.03 99 1012.8
20260509053034 8 227 0.0 0.0 0.00 0.03 0.03 99 1012.8
20260509052532 8 227 0.0 0.0 0.00 0.03 0.03 99 1012.8
20260509052029 8 227 0.0 0.0 0.00 0.03 0.03 99 1012.8
20260509051527 8 227 0.0 0.0 0.00 0.03 0.03 99 1012.8
20260509051024 8 227 0.0 0.0 0.00 0.03 0.03 99 1012.8
20260509050520 8 227 0.0 0.0 0.00 0.03 0.03 99 1012.8
20260509050011 8 250 0.0 0.0 0.03 0.03 0.03 99 1012.8
20260509045509 8 250 0.0 0.0 0.03 0.03 0.03 99 1012.8
20260509045005 8 250 0.0 0.0 0.03 0.03 0.03 99 1012.8
20260509044503 8 250 0.0 0.0 0.03 0.03 0.03 99 1011.7
20260509044000 8 250 0.0 0.0 0.03 0.03 0.03 99 1011.7
20260509043455 8 250 0.0 0.0 0.03 0.03 0.03 99 1011.7
20260509042951 8 250 0.0 0.0 0.03 0.03 0.03 99 1012.8
20260509042449 8 245 0.0 0.0 0.03 0.03 0.03 99 1012.8
20260509041944 7 245 0.0 0.0 0.00 0.00 0.00 99 1012.8
20260509041441 7 245 0.0 0.0 0.03 0.15 0.15 99 1012.8
20260509040940 7 245 0.0 0.0 0.03 0.15 0.15 99 1012.8
20260509040437 7 245 0.0 0.0 0.03 0.15 0.15 99 1012.8
20260509035934 8 245 0.0 0.0 0.03 0.15 0.15 99 1012.8
20260509035431 8 245 0.0 0.0 0.03 0.15 0.15 99 1012.8
20260509034928 8 245 0.0 0.0 0.03 0.15 0.15 99 1012.8
20260509034425 8 245 0.0 0.0 0.03 0.15 0.15 99 1012.8
20260509033922 8 245 0.0 0.0 0.03 0.15 0.15 99 1012.8
20260509033419 8 245 0.0 0.0 0.03 0.15 0.15 99 1012.8
20260509032915 7 245 0.0 0.0 0.03 0.15 0.15 99 1012.8
20260509032413 7 240 0.0 0.0 0.03 0.15 0.15 99 1012.8
20260509031911 7 240 0.0 0.0 0.00 0.13 0.13 99 1012.8
20260509031408 7 240 0.0 0.0 0.00 0.13 0.13 99 1012.8
20260509030905 7 240 0.0 0.0 0.00 0.13 0.13 99 1012.8
20260509030404 7 240 0.0 0.0 0.00 0.13 0.13 99 1012.8
20260509025900 7 240 0.0 0.0 0.00 0.13 0.13 99 1012.8
20260509025356 7 240 0.0 0.0 0.00 0.13 0.13 99 1012.8
20260509024851 7 240 0.0 0.0 0.00 0.13 0.13 99 1012.8
20260509024347 7 240 0.0 0.0 0.00 0.13 0.13 99 1012.8
20260509023844 7 240 0.0 0.0 0.00 0.13 0.13 99 1012.8
20260509023342 7 240 0.0 0.0 0.00 0.13 0.13 99 1012.8
20260509022833 7 240 0.0 0.0 0.00 0.13 0.13 99 1012.8
20260509022330 7 240 0.0 0.0 0.00 0.13 0.13 99 1012.8
20260509021827 7 240 0.0 0.0 0.00 0.13 0.13 99 1012.8
20260509021324 7 240 0.0 0.0 0.00 0.13 0.13 99 1012.8
20260509020821 7 240 0.0 0.0 0.00 0.13 0.13 99 1012.8
20260509020319 8 240 0.0 0.0 0.00 0.13 0.13 99 1012.8
20260509015817 8 240 0.0 0.0 0.00 0.13 0.13 99 1012.8
20260509015314 8 240 0.0 0.0 0.00 0.13 0.13 99 1012.8
20260509014811 8 240 0.0 0.0 0.00 0.13 0.13 99 1012.8
20260509014308 8 240 0.0 0.0 0.00 0.13 0.13 99 1012.8
20260509013804 8 240 0.0 0.0 0.00 0.13 0.13 99 1012.8
20260509013300 8 240 0.0 0.0 0.00 0.13 0.13 99 1012.8
20260509012756 9 240 0.0 0.0 0.00 0.13 0.13 98 1012.8
20260509012253 9 240 0.0 0.0 0.00 0.13 0.13 98 1012.8
20260509011751 9 240 0.0 0.0 0.00 0.13 0.13 98 1012.8
20260509011248 9 240 0.0 0.0 0.00 0.13 0.13 97 1012.8
20260509010746 9 240 0.0 0.0 0.00 0.13 0.13 97 1012.8
20260509010242 9 240 0.0 0.0 0.00 0.13 0.13 97 1012.8
20260509005740 9 240 0.0 0.0 0.00 0.13 0.13 97 1012.8
20260509005238 9 240 0.0 0.0 0.00 0.13 0.13 97 1012.8
20260509004732 9 240 0.0 0.0 0.00 0.13 0.13 96 1012.8
20260509004230 9 240 0.0 0.0 0.00 0.13 0.13 96 1012.8
20260509003728 9 240 0.0 0.0 0.00 0.13 0.13 96 1011.7
20260509003225 9 240 0.0 0.0 0.00 0.13 0.13 96 1011.7
20260509002722 9 240 0.0 0.0 0.00 0.13 0.13 96 1011.7
20260509002219 9 240 0.0 0.0 0.00 0.13 0.13 96 1011.7
20260509001711 9 240 0.0 0.0 0.00 0.13 0.13 96 1011.7
20260509001206 9 240 0.0 0.0 0.00 0.13 0.13 96 1011.7
20260509000704 10 240 0.0 0.0 0.03 0.13 0.13 96 1011.7
20260509000156 10 240 0.0 0.0 0.03 0.13 0.13 95 1011.7
20260508235653 10 240 0.0 0.0 0.03 0.13 0.13 95 1011.7
20260508235149 10 240 0.0 0.0 0.03 0.13 0.13 95 1011.7
20260508234647 10 240 0.0 0.0 0.03 0.13 0.13 95 1011.7
20260508234143 10 240 0.0 0.0 0.03 0.13 0.13 94 1011.7
20260508233643 10 240 0.0 0.0 0.03 0.13 0.13 93 1011.7
20260508233140 10 240 0.0 0.0 0.03 0.13 0.13 92 1011.7
20260508232637 10 240 0.0 0.0 0.00 0.10 0.10 91 1011.7
20260508232134 10 240 0.0 0.0 0.00 0.10 0.10 89 1011.7
20260508231632 10 240 0.0 0.0 0.00 0.10 0.10 89 1011.7
20260508231128 11 240 0.0 0.0 0.00 0.10 0.10 88 1011.7
20260508230624 11 240 0.0 0.0 0.03 0.10 0.10 85 1011.7
20260508230121 11 240 0.0 0.0 0.03 0.10 0.10 85 1011.7
20260508225620 11 240 0.0 0.0 0.00 0.08 0.08 81 1011.7
20260508225115 12 239 0.0 0.0 0.00 0.08 0.08 78 1011.7
20260508224613 12 223 0.0 0.0 0.00 0.08 0.08 75 1011.7
20260508224110 12 225 0.0 0.0 0.00 0.08 0.08 74 1011.7
20260508223608 12 225 0.0 0.0 0.00 0.08 0.08 71 1011.7
20260508223105 13 227 0.0 0.0 0.00 0.08 0.08 69 1011.7
20260508222602 13 227 0.0 0.0 0.00 0.08 0.08 67 1011.7
20260508222059 13 227 0.0 0.0 0.00 0.08 0.08 68 1010.6
20260508221555 13 222 0.0 0.0 0.00 0.08 0.08 66 1010.6
20260508221052 13 222 0.0 0.0 0.00 0.08 0.08 66 1010.6
20260508220548 13 222 0.0 0.0 0.00 0.08 0.08 68 1011.7
20260508220044 13 222 0.0 0.0 0.00 0.08 0.08 69 1011.7
20260508215542 13 222 0.0 0.0 0.00 0.08 0.08 67 1011.7
20260508215038 13 224 0.0 0.0 0.00 0.08 0.08 68 1011.7
20260508214536 13 224 0.0 0.0 0.00 0.08 0.08 66 1011.7
20260508214032 13 238 0.0 0.0 0.00 0.08 0.08 67 1011.7
20260508213530 13 259 0.0 0.0 0.00 0.08 0.08 65 1011.7